EW8281 Weather Reports


time (UTC)temp
F
wind
direction
speed
knots
gust
knots
rain 1hr
in
rain 24hr
in
rain mn
in
humidity
%
barometer
mb
20260510201559 83 344 0.0 3.5 0.00 0.00 0.00 31 1012.5
20260510200058 82 186 4.3 7.8 0.00 0.00 0.00 28 1012.7
20260510194558 82 190 0.9 4.3 0.00 0.00 0.00 29 1012.9
20260510193055 82 269 0.0 3.5 0.00 0.00 0.00 31 1013.0
20260510191556 82 274 0.9 7.0 0.00 0.00 0.00 31 1013.1
20260510190055 82 331 0.9 5.2 0.00 0.00 0.00 31 1013.1
20260510184553 82 250 0.9 7.0 0.00 0.00 0.00 32 1013.2
20260510183050 81 5 2.6 9.6 0.00 0.00 0.00 32 1013.2
20260510181549 81 156 3.5 8.7 0.00 0.00 0.00 30 1013.4
20260510180047 80 342 0.9 10.4 0.00 0.00 0.00 30 1013.4
20260510174547 81 27 0.0 5.2 0.00 0.00 0.00 34 1013.7
20260510173046 81 313 0.0 6.1 0.00 0.00 0.00 35 1013.9
20260510171542 79 65 0.0 4.3 0.00 0.00 0.00 40 1013.8
20260510170039 79 90 0.0 5.2 0.00 0.00 0.00 35 1013.9
20260510164541 78 15 2.6 6.1 0.00 0.00 0.00 35 1014.1
20260510163039 78 189 0.0 5.2 0.00 0.00 0.00 36 1014.2
20260510161537 79 294 0.9 4.3 0.00 0.00 0.00 38 1014.3
20260510160034 78 286 0.0 4.3 0.00 0.00 0.00 39 1014.4
20260510154534 77 261 1.7 4.3 0.00 0.00 0.00 43 1014.4
20260510153029 76 38 0.9 5.2 0.00 0.00 0.00 44 1014.5
20260510151532 75 49 0.0 4.3 0.00 0.00 0.00 48 1014.5
20260510150023 75 76 0.9 5.2 0.00 0.00 0.00 51 1014.6
20260510144533 75 275 0.0 4.3 0.00 0.00 0.00 52 1014.5
20260510143022 74 159 0.0 3.5 0.00 0.00 0.00 50 1014.6
20260510141515 73 29 0.9 2.6 0.00 0.00 0.00 51 1014.6
20260510140011 72 13 0.0 4.3 0.00 0.00 0.00 58 1014.7
20260510134508 70 355 0.0 3.5 0.00 0.00 0.00 62 1014.7
20260510133004 69 350 0.9 3.5 0.00 0.00 0.00 65 1014.6
20260510131601 68 5 0.0 1.7 0.00 0.00 0.00 70 1014.5
20260510130056 67 340 0.0 1.7 0.00 0.00 0.00 70 1014.4
20260510124559 66 323 0.0 3.5 0.00 0.00 0.00 79 1014.5
20260510123049 63 65 0.0 0.9 0.00 0.00 0.00 87 1014.3
20260510121547 62 66 0.0 0.9 0.00 0.00 0.00 93 1014.1
20260510120044 60 67 0.0 0.0 0.00 0.00 0.00 96 1013.7
20260510114542 58 67 0.0 0.0 0.00 0.00 0.00 96 1013.4
20260510113041 57 67 0.0 0.0 0.00 0.00 0.00 96 1013.2
20260510111552 56 67 0.0 0.0 0.00 0.00 0.00 96 1013.0
20260510110036 55 67 0.0 0.0 0.00 0.00 0.00 96 1012.7
20260510104543 55 67 0.0 0.0 0.00 0.00 0.00 95 1012.5
20260510103034 54 67 0.0 0.0 0.00 0.00 0.00 95 1012.3
20260510101530 55 67 0.0 0.0 0.00 0.00 0.00 95 1012.2
20260510100028 55 67 0.0 0.0 0.00 0.00 0.00 95 1012.1
20260510094531 56 212 0.0 0.0 0.00 0.00 0.00 94 1011.8
20260510093023 56 211 0.0 0.0 0.00 0.00 0.00 95 1011.6
20260510091523 57 212 0.0 0.0 0.00 0.00 0.00 95 1011.5
20260510090020 56 211 0.0 0.0 0.00 0.00 0.00 94 1011.5
20260510084518 56 212 0.0 0.0 0.00 0.00 0.00 94 1011.4
20260510083015 57 212 0.0 0.0 0.00 0.00 0.00 94 1011.3
20260510081514 57 212 0.0 0.0 0.00 0.00 0.00 94 1011.1
20260510080011 58 212 0.0 0.0 0.00 0.00 0.00 94 1010.9
20260510074510 58 212 0.0 0.0 0.00 0.00 0.00 93 1010.9
20260510073008 58 212 0.0 0.0 0.00 0.00 0.00 93 1010.8
20260510071507 59 212 0.0 0.0 0.00 0.00 0.00 93 1010.7
20260510070006 59 212 0.0 0.0 0.00 0.00 0.00 92 1010.6
20260510064505 59 212 0.0 0.0 0.00 0.00 0.00 92 1010.7
20260510063002 60 212 0.0 0.0 0.00 0.00 0.00 92 1010.7
20260510061502 60 212 0.0 0.0 0.00 0.00 0.00 92 1010.8
20260510060101 60 212 0.0 0.9 0.00 0.00 0.00 92 1010.8
20260510054600 61 212 0.0 0.0 0.00 0.00 0.00 90 1010.7
20260510053100 61 212 0.0 0.0 0.00 0.00 0.00 90 1010.9
20260510051638 62 212 0.0 0.0 0.00 0.00 0.00 89 1011.0
20260510050055 62 212 0.0 0.0 0.00 0.00 0.00 88 1011.1
20260510044549 63 212 0.0 0.0 0.00 0.00 0.00 86 1011.1
20260510043118 64 212 0.0 0.0 0.00 0.00 0.00 86 1011.0
20260510041550 64 212 0.0 0.9 0.00 0.00 0.00 84 1010.9
20260510040043 65 165 0.0 2.6 0.00 0.00 0.00 84 1010.9
20260510034545 65 209 0.0 1.7 0.00 0.00 0.00 84 1011.0
20260510033042 65 215 0.0 5.2 0.00 0.00 0.00 83 1011.0
20260510031608 65 238 0.9 4.3 0.00 0.00 0.00 82 1011.0
20260510030040 65 196 0.9 4.3 0.00 0.00 0.00 82 1010.9
20260510024540 66 190 0.9 4.3 0.00 0.00 0.00 81 1010.9
20260510023047 66 155 0.9 4.3 0.00 0.00 0.00 80 1010.8
20260510021543 66 173 0.9 6.1 0.00 0.00 0.00 79 1010.6
20260510020038 67 200 2.6 7.8 0.00 0.00 0.00 78 1010.4
20260510014537 67 226 0.0 7.8 0.00 0.00 0.00 78 1010.3
20260510013038 67 171 1.7 5.2 0.00 0.00 0.00 78 1010.1
20260510011546 67 190 0.0 4.3 0.00 0.00 0.00 77 1009.8
20260510010042 67 169 0.0 5.2 0.00 0.00 0.00 77 1009.6
20260510004535 68 198 1.7 7.0 0.00 0.00 0.00 76 1009.3
20260510003035 68 198 0.0 1.7 0.00 0.00 0.00 75 1009.0
20260510001534 69 234 0.9 3.5 0.00 0.00 0.00 73 1008.9
20260510000033 70 169 1.7 6.1 0.00 0.00 0.00 73 1008.9
20260509234535 70 207 0.9 6.1 0.00 0.00 0.00 72 1008.8
20260509233033 71 157 0.9 5.2 0.00 0.00 0.00 70 1008.5
20260509231534 71 201 0.9 6.1 0.00 0.00 0.00 69 1008.5
20260509230031 72 157 0.9 5.2 0.00 0.00 0.00 67 1008.2
20260509224531 72 175 2.6 6.1 0.00 0.00 0.00 66 1008.1
20260509223030 72 159 1.7 7.0 0.00 0.00 0.00 65 1008.1
20260509221536 72 177 2.6 9.6 0.00 0.00 0.00 63 1008.1
20260509220033 73 194 2.6 7.8 0.00 0.00 0.00 62 1008.1
20260509214530 73 167 1.7 11.3 0.00 0.00 0.00 62 1008.1
20260509213029 74 166 0.9 8.7 0.00 0.00 0.00 61 1008.0
20260509211551 75 163 1.7 7.8 0.00 0.00 0.00 59 1008.0
20260509210025 75 248 1.7 6.1 0.00 0.00 0.00 60 1007.8
20260509204524 74 205 0.0 5.2 0.00 0.00 0.00 62 1007.6
20260509203037 74 236 4.3 11.3 0.00 0.00 0.00 60 1007.8